Hourly Data Report for June 06, 2021

OTTAWA INTL A
ONTARIO
Current Station Operator: NAVCAN

45°19'00.000" N
75°40'00.000" W
114.90 m
6106001
71628
YOW

Download Data

Hourly Data (June 2021)
Hourly Data Report for June 6, 2021
TIME
LST
Temp Definition
°C
Dew Point Definition
°C
Rel Hum Definition
%
Precip. Amount Definition
mm

Wind Dir Definition
10's deg

Wind Spd Definition
km/h
Visibility Definition
km
Stn Press Definition
kPa
Hmdx Definition


Wind Chill Definition


Weather Definition


00:00 19.2 18.5 96   20 8 24.1 99.76     LegendNANA
01:00 19.2 18.1 93   17 11 24.1 99.73     Mostly Cloudy
02:00 18.6 17.2 92   17 10 24.1 99.72     LegendNANA
03:00 17.8 16.6 92   36 2 24.1 99.75     LegendNANA
04:00 17.8 16.4 91   18 8 24.1 99.76     Mainly Clear
05:00 18.5 16.7 89   18 10 24.1 99.82     LegendNANA
06:00 18.7 17.0 90   19 9 24.1 99.86     LegendNANA
07:00 21.5 17.5 78   20 13 24.1 99.87 27   Mostly Cloudy
08:00 23.4 18.3 72   21 12 24.1 99.90 30   LegendNANA
09:00 25.9 17.5 60   24 15 24.1 99.94 32   LegendNANA
10:00 27.8 18.5 56   22 12 24.1 99.92 34   Mainly Clear
11:00 29.2 19.3 55   21 20 24.1 99.90 36   LegendNANA
12:00 30.7 19.7 51   21 19 24.1 99.87 38   LegendNANA
13:00 30.8 18.9 48   23 23 24.1 99.84 37   Mostly Cloudy
14:00 30.1 19.6 53   22 17 24.1 99.84 37   LegendNANA
15:00 31.9 19.3 47   20 21 24.1 99.79 39   LegendNANA
16:00 31.9 18.4 44   22 30 24.1 99.76 38   Mostly Cloudy
17:00 31.5 18.2 44   21 26 24.1 99.73 38   LegendNANA
18:00 30.4 17.6 45   22 26 24.1 99.75 36   LegendNANA
19:00 28.9 16.9 48   21 22 24.1 99.80 34   Mostly Cloudy
20:00 27.6 16.8 51   21 17 24.1 99.86 33   LegendNANA
21:00 26.4 16.8 55   21 20 24.1 99.95 32   LegendNANA
22:00 24.9 16.6 59   21 11 24.1 99.98 30   Mainly Clear
23:00 24.7 16.0 58   21 17 24.1 99.96 29   LegendNANA

Notes on Data Quality.

Legend

  • E = Estimated
  • M = Missing
  • NA = Not Available*
  • [empty] = Indicates an unobserved value
Date modified: